ジャック彗星

C/2017 K6 ( Jacques )

English version
Home page
Updated on October 9, 2017

---------------------------------------------------------------------

・ プロフィール

発見日 2017年5月29日
発見光度 17.5等
発見者 Cristovao Jacques (SONEAR Observatory at Oliveira)

・ 写真集

・ 軌道要素

Epoch 2018 Jan. 2.0 TT = JDT 2458120.5
T 2018 Jan. 3.13733 TT                                  MPCW
q   2.0027976            (2000.0)            P               Q
z  +0.0009047      Peri.  303.83735     +0.49566138     -0.22849814
 +/-0.0000055      Node    85.05456     +0.75133194     +0.59677826
e   0.9981880      Incl.   57.25118     -0.43568351     +0.76918419
From 128 observations 2017 May 29-Sept. 25, mean residual 0".5.

・ 星図

・ 光度変化

        m1 = 11.8 + 5 logΔ + 7.5 log r

---------------------------------------------------------------------

軌道要素はM.P.E.C. 2017-T14に掲載されたものです。
星図はステラナビゲータ Ver.10 (アストロアーツ) で作成したものです。
光度グラフはComet for Windowsで作成したものです。

---------------------------------------------------------------------

Copyright(C) Seiichi Yoshida (comet@aerith.net). All rights reserved.